Location: Zagreb
(45.8000°N, 16.0000°E)
Time: 11:24:18
(UTC+01:00)

Vanguard 1 Rocket - Pass Details

Date: 10 October 2020
Orbit: 656 x 4221 km, 34.3° (Epoch: 28 October)

Event Time Altitude Azimuth Distance (km) Brightness Sun altitude
Rises 13:47:11 0° 183° (S) 3,338 11.2 35.4°
Reaches altitude 10° 13:52:41 10° 138° (SE) 2,986 10.5 35.0°
Maximum altitude 13:53:20 10° 133° (SE) 3,056 10.4 35.0°
Drops below altitude 10° 13:54:02 10° 127° (SE) 3,150 10.4 34.9°
Sets 14:02:06 0° 89° (E) 5,179 11.1 34.4°
